(352580) = 2008 DJ60

Discovered at Kitt Peak on 2008-02-28 by Spacewatch.

Orbit

Orbit type: Main Belt

Note: WebGL enabled browser required.

epoch2023-09-13.0
epoch JD2460200.5
perihelion date2019-12-15.13658
perihelion JD2458832.63658
argument of perihelion (°)318.97865
ascending node (°)249.44438
inclination (°)3.74251
eccentricity0.1028660
perihelion distance (AU)2.8192412
Tisserand w.r.t. Jupiter3.2
ΔV w.r.t. Earth (km/sec)10.5
semimajor axis (AU)3.1424974
mean anomaly (°)242.01049
mean daily motion (°/day)0.17692590
aphelion distance (AU)3.466
period (years)5.57
P-vector [x]-0.87814681
P-vector [y]-0.42011063
P-vector [z]-0.22883450
Q-vector [x]0.47447117
Q-vector [y]-0.82595700
Q-vector [z]-0.30442100
absolute magnitude16.17
phase slope0.15
uncertainty0
referenceMPEC 2023-Y46
observations used259
oppositions15
arc length (days)8426
first opposition used2000
last opposition used2023
residual rms (arc-secs)0.79
perturbers coarse indicatorM-v
perturbers precise indicator003Ek
first observation date used2000-11-19.0
last observation date used2023-12-15.0
computer nameMPCLINUX
JD of orbit computation2456789.407169
perihelion JD uncertainty (days)1.7885E-04
argument of perihelion uncertainty (°)9.6577E-05
ascending node uncertainty (°)8.9070E-05
inclination uncertainty (°)5.6790E-06
eccentricity uncertainty 8.8699E-08
perihelion distance uncertainty (AU)2.8427E-07
Minimum Orbit Intersection Distances (in AU)
for orbit epoch: 2460200.5, reference: E2023-Y46
Mercury2.37818
Venus2.1004
Earth1.81443
Mars1.2058
Jupiter1.516
Saturn5.70368
Uranus15.5223
Neptune26.3826

Observations

261 total observations over interval: 2000 11 19.24491 – 2023 12 15.321742
These data are available for download (format description).

Date (UT) J2000 RA J2000 Dec Magn Location Ref
2000 11 19.24491 03 30 18.76 +20 27 13.8 22.3 V 691 – Steward Observatory, Kitt Peak-Spacewatch MPS 312598
2000 11 19.26719 03 30 17.67 +20 27 08.6 21.6 V 691 – Steward Observatory, Kitt Peak-Spacewatch MPS 312598
2000 11 19.29127 03 30 16.47 +20 27 02.9 22.1 V 691 – Steward Observatory, Kitt Peak-Spacewatch MPS 312598
2006 12 17.31567 05 31 39.18 +22 07 38.2 20.9 V G96 – Mt. Lemmon Survey MPS 312598
2006 12 17.32120 05 31 38.89 +22 07 38.0 20.8 V G96 – Mt. Lemmon Survey MPS 312598
2006 12 17.32678 05 31 38.60 +22 07 37.7 20.6 V G96 – Mt. Lemmon Survey MPS 312598
2006 12 17.33229 05 31 38.31 +22 07 37.5 20.9 V G96 – Mt. Lemmon Survey MPS 312598
2006 12 27.23249 05 23 04.41 +21 52 39.3 20.4 V G96 – Mt. Lemmon Survey MPS 312598
2006 12 27.23921 05 23 04.09 +21 52 38.7 20.5 V G96 – Mt. Lemmon Survey MPS 312598
2006 12 27.24600 05 23 03.73 +21 52 38.1 20.7 V G96 – Mt. Lemmon Survey MPS 312598
2006 12 27.25281 05 23 03.37 +21 52 38.0 20.5 V G96 – Mt. Lemmon Survey MPS 312598
2007 01 10.26891 05 12 45.03 +21 32 35.3 20.5 V G96 – Mt. Lemmon Survey MPS 312598
2007 01 10.27402 05 12 44.82 +21 32 34.9 20.2 V G96 – Mt. Lemmon Survey MPS 312598
2007 01 10.27919 05 12 44.64 +21 32 34.1 20.4 V G96 – Mt. Lemmon Survey MPS 312598
2007 01 10.28429 05 12 44.42 +21 32 33.9 20.2 V G96 – Mt. Lemmon Survey MPS 312598
2008 02 10.39956 11 23 30.96 -01 51 22.4 20.3 V 691 – Steward Observatory, Kitt Peak-Spacewatch MPS 312598
2008 02 10.41718 11 23 30.41 -01 51 20.4 20.4 V 691 – Steward Observatory, Kitt Peak-Spacewatch MPS 312598
2008 02 10.43481 11 23 29.88 -01 51 18.6 20.4 V 691 – Steward Observatory, Kitt Peak-Spacewatch MPS 312598
2008 02 28.21109 11 12 23.02 -00 56 06.0 20.8 V 691 – Steward Observatory, Kitt Peak-Spacewatch MPS 242304
2008 02 28.22869 11 12 22.25 -00 56 01.6 20.9 V 691 – Steward Observatory, Kitt Peak-Spacewatch MPS 242304
2008 02 28.24629 11 12 21.46 -00 55 57.0 20.3 V 691 – Steward Observatory, Kitt Peak-Spacewatch MPS 242304
2008 03 05.43848 11 07 44.61 -00 28 20.2 20.0 V G96 – Mt. Lemmon Survey MPS 242304
2008 03 05.44116 11 07 44.50 -00 28 19.4 19.9 V G96 – Mt. Lemmon Survey MPS 242304
2008 03 05.44379 11 07 44.36 -00 28 18.6 19.8 V G96 – Mt. Lemmon Survey MPS 242304
2008 03 05.44641 11 07 44.25 -00 28 17.9 20.2 V G96 – Mt. Lemmon Survey MPS 242304
2010 09 02.22675 22 40 47.42 -02 40 56.1 20.5 V G96 – Mt. Lemmon Survey MPS 346381
2010 09 02.23329 22 40 47.17 -02 40 57.6 20.3 V G96 – Mt. Lemmon Survey MPS 346381
2010 09 02.23987 22 40 46.84 -02 40 59.4 20.8 V G96 – Mt. Lemmon Survey MPS 346381
2010 09 02.24647 22 40 46.56 -02 41 01.3 20.6 V G96 – Mt. Lemmon Survey MPS 346381
2011 10 30.40785 02 49 42.13 +18 49 14.7 20.6 V G96 – Mt. Lemmon Survey MPS 398297
2011 10 30.41542 02 49 41.80 +18 49 12.7 20.6 V G96 – Mt. Lemmon Survey MPS 398297
2011 10 30.42288 02 49 41.44 +18 49 11.5 21.2 V G96 – Mt. Lemmon Survey MPS 398297
2011 11 03.21062 02 46 44.84 +18 33 45.1 20.9 V 691 – Steward Observatory, Kitt Peak-Spacewatch MPS 398297
2011 11 03.22341 02 46 44.20 +18 33 42.2 20.9 V 691 – Steward Observatory, Kitt Peak-Spacewatch MPS 398297
2011 11 03.23620 02 46 43.62 +18 33 39.1 21.1 V 691 – Steward Observatory, Kitt Peak-Spacewatch MPS 398297
2013 01 03.34145 07 46 52.32 +17 33 23.2 21.1 V G96 – Mt. Lemmon Survey MPS 448772
2013 01 03.34731 07 46 52.03 +17 33 23.3 20.5 V G96 – Mt. Lemmon Survey MPS 448772
2013 01 03.35916 07 46 51.42 +17 33 24.1 20.9 V G96 – Mt. Lemmon Survey MPS 448772
2013 01 03.36507 07 46 51.13 +17 33 24.5 20.4 V G96 – Mt. Lemmon Survey MPS 448772
2013 01 05.26993 07 45 17.17 +17 35 25.2 20.8 V G96 – Mt. Lemmon Survey MPS 449647
2013 01 05.27463 07 45 16.84 +17 35 25.4 20.9 V G96 – Mt. Lemmon Survey MPS 449647
2013 01 05.27939 07 45 16.63 +17 35 25.9 20.9 V G96 – Mt. Lemmon Survey MPS 449647
2013 01 05.28406 07 45 16.38 +17 35 26.1 21.1 V G96 – Mt. Lemmon Survey MPS 449647
2013 01 06.18683 07 44 31.21 +17 36 25.9 20.6 V 691 – Steward Observatory, Kitt Peak-Spacewatch MPS 449647
2013 01 06.20450 07 44 30.28 +17 36 27.1 20.4 V 691 – Steward Observatory, Kitt Peak-Spacewatch MPS 449647
2013 01 06.22219 07 44 29.38 +17 36 28.4 20.3 V 691 – Steward Observatory, Kitt Peak-Spacewatch MPS 449647
2013 01 13.32396 07 38 23.24 +17 45 07.5 20.3 V G96 – Mt. Lemmon Survey MPS 450983
2013 01 13.32921 07 38 22.95 +17 45 07.7 20.5 V G96 – Mt. Lemmon Survey MPS 450983
2013 01 13.33439 07 38 22.66 +17 45 08.3 20.5 V G96 – Mt. Lemmon Survey MPS 450983
2013 01 13.33976 07 38 22.38 +17 45 08.7 20.5 V G96 – Mt. Lemmon Survey MPS 450983
2013 01 17.48934 07 34 46.021 +17 50 39.72 20.4 w F51 – Pan-STARRS 1, Haleakala MPS 450983
2013 01 17.50465 07 34 45.206 +17 50 40.86 20.6 w F51 – Pan-STARRS 1, Haleakala MPS 450983
2013 01 17.52006 07 34 44.381 +17 50 42.04 20.6 w F51 – Pan-STARRS 1, Haleakala MPS 450983
2014 04 04.45241 13 32 42.904 -14 14 34.63 20.0 w F51 – Pan-STARRS 1, Haleakala MPS 511042
2014 04 04.46379 13 32 42.395 -14 14 31.53 19.9 w F51 – Pan-STARRS 1, Haleakala MPS 511042
2014 04 04.47512 13 32 41.893 -14 14 28.42 19.9 w F51 – Pan-STARRS 1, Haleakala MPS 511042
2014 04 04.48648 13 32 41.384 -14 14 25.31 19.9 w F51 – Pan-STARRS 1, Haleakala MPS 511042
2014 04 21.35102 13 20 16.46 -12 48 02.9 19.4 V G96 – Mt. Lemmon Survey MPS 512408
2014 04 21.35725 13 20 16.21 -12 48 00.5 19.7 V G96 – Mt. Lemmon Survey MPS 512408
2014 04 21.36349 13 20 15.91 -12 47 58.5 19.7 V G96 – Mt. Lemmon Survey MPS 512408
2014 04 21.36974 13 20 15.63 -12 47 56.5 19.7 V G96 – Mt. Lemmon Survey MPS 512408
2014 04 23.27637 13 18 54.29 -12 37 32.5 19.7 V G96 – Mt. Lemmon Survey MPS 512408
2014 04 23.28364 13 18 53.96 -12 37 30.0 19.7 V G96 – Mt. Lemmon Survey MPS 512408
2014 04 23.29091 13 18 53.63 -12 37 27.3 19.6 V G96 – Mt. Lemmon Survey MPS 512408
2014 04 23.29819 13 18 53.32 -12 37 24.9 21.3 V G96 – Mt. Lemmon Survey MPS 512408
2015 06 13.54010 20 16 48.323 -16 20 42.97 20.7 w F51 – Pan-STARRS 1, Haleakala MPS 612507
2015 06 13.55141 20 16 48.043 -16 20 42.80 20.9 w F51 – Pan-STARRS 1, Haleakala MPS 612507
2015 06 13.56270 20 16 47.765 -16 20 42.43 20.9 w F51 – Pan-STARRS 1, Haleakala MPS 612507
2015 06 15.48695 20 16 02.417 -16 20 13.76 21.0 w F51 – Pan-STARRS 1, Haleakala MPS 612507
2015 06 15.49818 20 16 02.126 -16 20 13.54 20.9 w F51 – Pan-STARRS 1, Haleakala MPS 612507
2015 06 15.50946 20 16 01.836 -16 20 13.30 20.8 w F51 – Pan-STARRS 1, Haleakala MPS 612507
2015 06 18.53695 20 14 40.923 -16 20 01.25 21.0 w F51 – Pan-STARRS 1, Haleakala MPS 612507
2015 06 18.54897 20 14 40.564 -16 20 01.21 21.0 w F51 – Pan-STARRS 1, Haleakala MPS 612507
2015 06 18.56097 20 14 40.195 -16 20 01.35 21.1 w F51 – Pan-STARRS 1, Haleakala MPS 612507
2015 06 18.57292 20 14 39.841 -16 20 01.28 21.1 w F51 – Pan-STARRS 1, Haleakala MPS 612507
2015 06 22.54078 20 12 37.521 -16 20 45.41 20.9 w F51 – Pan-STARRS 1, Haleakala MPS 614084
2015 06 22.55257 20 12 37.117 -16 20 45.56 21.2 w F51 – Pan-STARRS 1, Haleakala MPS 614084
2015 06 22.57611 20 12 36.296 -16 20 46.10 21.0 w F51 – Pan-STARRS 1, Haleakala MPS 614084
2015 06 23.51314 20 12 04.927 -16 21 06.26 21.0 w F51 – Pan-STARRS 1, Haleakala MPS 614084
2015 06 23.52482 20 12 04.506 -16 21 06.43 21.1 w F51 – Pan-STARRS 1, Haleakala MPS 614084
2015 06 23.53650 20 12 04.095 -16 21 06.70 21.3 w F51 – Pan-STARRS 1, Haleakala MPS 614084
2015 06 23.54814 20 12 03.679 -16 21 06.98 21.1 w F51 – Pan-STARRS 1, Haleakala MPS 614084
2015 07 19.46279 19 53 09.249 -16 48 50.44 20.3 w F51 – Pan-STARRS 1, Haleakala MPS 617504
2015 07 19.47416 19 53 08.675 -16 48 51.44 20.5 w F51 – Pan-STARRS 1, Haleakala MPS 617504
2015 07 19.48554 19 53 08.100 -16 48 52.57 20.4 w F51 – Pan-STARRS 1, Haleakala MPS 617504
2015 07 19.49692 19 53 07.531 -16 48 53.66 20.5 w F51 – Pan-STARRS 1, Haleakala MPS 617504
2015 07 26.40842 19 47 34.044 -16 59 53.77 20.2 i F51 – Pan-STARRS 1, Haleakala MPS 618442
2015 07 26.41942 19 47 33.503 -16 59 54.92 20.2 i F51 – Pan-STARRS 1, Haleakala MPS 618442
2015 07 26.43043 19 47 32.956 -16 59 56.00 20.3 i F51 – Pan-STARRS 1, Haleakala MPS 618442
2015 07 26.44141 19 47 32.415 -16 59 56.98 20.4 i F51 – Pan-STARRS 1, Haleakala MPS 618442
2015 08 17.33909 19 32 57.353 -17 33 59.35 21.1 w F51 – Pan-STARRS 1, Haleakala MPS 623194
